Location: Chassagnes
(44.4047°N, 4.1657°E)
Time: 12:54:09
(UTC+00:00)

Cosmos 2278 - Pass Details

Date: 27 October 2020
Orbit: 842 x 851 km, 71.1° (Epoch: 23 November)

Event Time Altitude Azimuth Distance (km) Brightness Sun altitude
Rises 18:29:16 0° 183° (S) 3,397 6.9 -20.2°
Reaches altitude 10° 18:31:48 10° 176° (S) 2,465 6.1 -20.6°
Enters shadow 18:36:47 42° 116° (ESE) 1,192 4.0 -21.5°
